Location: Unspecified
(0.0000°N, 0.0000°E)
Time: 07:44:31
(UTC+00:00)

DMSP B5D2-3 - Pass Details

Date: 24 October 2019
Orbit: 821 x 839 km, 98.7° (Epoch: 21 November)

Event Time Altitude Azimuth Distance (km) Brightness Sun altitude
Rises 05:01:52 0° 139° (SE) 3,354 9.3 -10.4°
Reaches altitude 10° 05:04:52 10° 122° (ESE) 2,421 8.9 -9.6°
Maximum altitude 05:08:36 19° 77° (ENE) 1,848 8.0 -8.7°
Drops below altitude 10° 05:12:20 10° 32° (NNE) 2,421 7.9 -7.8°
Sets 05:15:19 0° 16° (NNE) 3,354 8.4 -7.1°
